Covington, KY

4:07 AM EST on December 08, 2019 (GMT -0500)
Cincinnati-Northern KY International

Weather History for KCVG - October, 2019

Change the Weather History Date:

Saturday, October 12, 2019

  Actual Average Record
Temperature  
Mean Temperature 46 °F 57 °F  
Max Temperature 55 °F 68 °F 87 °F (1928)
Min Temperature 36 °F 47 °F 26 °F (1988)
Degree Days  
Heating Degree Days 19 9  
Month to date heating degree days 38 86  
Since 1 July heating degree days 38 144  
Cooling Degree Days 0 1  
Month to date cooling degree days 54 14  
Year to date cooling degree days 1496 1119  
Moisture  
Dew Point 33 °F    
Average Humidity 65    
Maximum Humidity 93    
Minimum Humidity 32    
Precipitation  
Precipitation 0.03 in 0.11 in 1.95 in (1978)
Month to date precipitation 0.68 1.26  
Year to date precipitation 43.10 33.68  
Snow  
Snow 0.00 in 0.00 in - ()
Month to date snowfall 0.0 0.1  
Since 1 July snowfall 0.0 0.1  
Since 1 September snowfall 0.0 0.1  
Snow Depth 0.00 in    
Sea Level Pressure  
Sea Level Pressure 30.11 in    
Wind  
Wind Speed 9 mph ()    
Max Wind Speed 20 mph    
Max Gust Speed 24 mph    
Visibility 9.9 miles    
Events Rain    
T = Trace of Precipitation, MM = Missing Value Source: Averaged Metar Reports

Daily Weather History Graph

Daily Weather History Graph

Search for Another Location

Airport or City:

Astronomy

Oct. 12, 2019 Rise Set
Actual Time 7:44 AM EDT 7:04 PM EDT
Civil Twilight 7:18 AM EDT 7:31 PM EDT
Nautical Twilight 6:47 AM EDT 8:02 PM EDT
Astronomical Twilight 6:16 AM EDT 8:33 PM EDT
Moon 6:59 PM EDT (10/12) 6:22 AM EDT (10/12)
Length of Visible Light 12h 13m
Length of Day
11h 19m
Waxing Gibbous, 99% of the Moon is Illuminated
Oct 12
Waxing Gibbous
Oct 13
Full
Oct 21
Last Quarter
Oct 27
New
Nov 4
First Quarter

Hourly Weather History & Observations

Time (EDT) Temp. Windchill Dew Point Humidity Pressure Visibility Wind Dir Wind Speed Gust Speed Precip Events Conditions
12:52 AM 46.9 °F - 44.1 °F 90% 30.05 in 7.0 mi NNW 10.4 mph - 0.01 in Rain Light Rain
1:39 AM 45.0 °F 37.9 °F 41.0 °F 86% 30.07 in 10.0 mi NW 16.1 mph - 0.02 in Rain Light Rain
1:52 AM 45.0 °F 38.2 °F 41.0 °F 86% 30.06 in 10.0 mi WNW 15.0 mph 21.9 mph 0.02 in   Overcast
2:07 AM 45.0 °F 38.5 °F 39.9 °F 82% 30.09 in 10.0 mi WNW 13.8 mph - N/A   Overcast
2:23 AM 44.1 °F 38.6 °F 39.9 °F 85% 30.08 in 10.0 mi WNW 10.4 mph - 0.00 in   Overcast
2:52 AM 44.1 °F 38.1 °F 39.9 °F 85% 30.08 in 10.0 mi WNW 11.5 mph - 0.00 in   Overcast
3:24 AM 44.1 °F 39.0 °F 39.9 °F 85% 30.09 in 10.0 mi WNW 9.2 mph - N/A   Overcast
3:52 AM 44.1 °F 38.6 °F 39.0 °F 82% 30.09 in 10.0 mi WNW 10.4 mph - N/A   Overcast
4:19 AM 43.0 °F 36.4 °F 36.0 °F 76% 30.10 in 10.0 mi NW 12.7 mph 23.0 mph N/A   Overcast
4:52 AM 42.1 °F 36.6 °F 33.1 °F 70% 30.11 in 10.0 mi NW 9.2 mph - N/A   Mostly Cloudy
5:52 AM 37.9 °F 33.5 °F 32.0 °F 79% 30.13 in 10.0 mi West 5.8 mph - N/A   Partly Cloudy
6:52 AM 37.9 °F - 32.0 °F 79% 30.14 in 10.0 mi Calm Calm - N/A   Clear
7:52 AM 36.0 °F 29.6 °F 32.0 °F 86% 30.16 in 10.0 mi West 8.1 mph - N/A   Clear
8:52 AM 39.0 °F 33.4 °F 33.1 °F 79% 30.17 in 10.0 mi West 8.1 mph - N/A   Clear
9:52 AM 42.1 °F 36.1 °F 33.1 °F 70% 30.19 in 10.0 mi West 10.4 mph - N/A   Partly Cloudy
10:52 AM 45.0 °F 38.5 °F 28.0 °F 52% 30.19 in 10.0 mi West 13.8 mph - N/A   Partly Cloudy
11:52 AM 46.9 °F - 30.9 °F 54% 30.19 in 10.0 mi West 9.2 mph - N/A   Clear
12:52 PM 48.9 °F - 28.9 °F 46% 30.18 in 10.0 mi West 6.9 mph - N/A   Clear
1:52 PM 52.0 °F - 28.9 °F 41% 30.15 in 10.0 mi West 8.1 mph - N/A   Clear
2:52 PM 54.0 °F - 28.0 °F 37% 30.14 in 10.0 mi WSW 11.5 mph - N/A   Clear
3:52 PM 55.0 °F - 27.0 °F 34% 30.11 in 10.0 mi West 8.1 mph - N/A   Clear
4:52 PM 55.9 °F - 26.1 °F 32% 30.10 in 10.0 mi WSW 9.2 mph - N/A   Clear
5:52 PM 55.0 °F - 27.0 °F 34% 30.09 in 10.0 mi SSW 6.9 mph - N/A   Clear
6:52 PM 51.1 °F - 28.9 °F 43% 30.09 in 10.0 mi SSW 6.9 mph - N/A   Partly Cloudy
7:52 PM 48.0 °F - 30.9 °F 52% 30.09 in 10.0 mi South 5.8 mph - N/A   Clear
8:52 PM 46.9 °F - 30.9 °F 54% 30.09 in 10.0 mi South 4.6 mph - N/A   Clear
9:52 PM 44.1 °F 40.8 °F 32.0 °F 63% 30.08 in 10.0 mi South 5.8 mph - N/A   Clear
10:52 PM 42.1 °F 38.4 °F 33.1 °F 70% 30.08 in 10.0 mi South 5.8 mph - N/A   Clear
11:52 PM 42.1 °F 38.4 °F 32.0 °F 67% 30.07 in 10.0 mi South 5.8 mph - N/A   Clear